| time (UTC) | temp F | wind direction | speed MPH | gust MPH | rain 1hr in | rain 24hr in | rain mn in | humidity % | barometer mb |
| 20260507070046 | 67 | 22 | 2.0 | 10.0 | 0.00 | 0.00 | 0.00 | 45 | 1043.7 |
| 20260507064540 | 67 | 26 | 3.0 | 8.0 | 0.00 | 0.00 | 0.00 | 47 | 1043.6 |
| 20260507063040 | 66 | 19 | 1.0 | 8.0 | 0.00 | 0.00 | 0.00 | 46 | 1043.5 |
| 20260507061530 | 66 | 5 | 1.0 | 5.0 | 0.00 | 0.00 | 0.00 | 47 | 1043.4 |
| 20260507060030 | 66 | 33 | 2.0 | 4.0 | 0.00 | 0.00 | 0.00 | 55 | 1043.4 |
| 20260507054522 | 65 | 134 | 0.0 | 2.0 | 0.00 | 0.00 | 0.00 | 59 | 1043.4 |
| 20260507053018 | 63 | 67 | 0.0 | 0.0 | 0.00 | 0.00 | 0.00 | 65 | 1043.4 |
| 20260507051513 | 62 | 67 | 1.0 | 2.0 | 0.00 | 0.00 | 0.00 | 68 | 1043.3 |
| 20260507050013 | 59 | 69 | 0.0 | 1.0 | 0.00 | 0.00 | 0.00 | 74 | 1043.1 |
| 20260507044505 | 56 | 69 | 0.0 | 2.0 | 0.00 | 0.00 | 0.00 | 79 | 1043.0 |
| 20260507043127 | 55 | 157 | 0.0 | 2.0 | 0.00 | 0.00 | 0.00 | 81 | 1043.2 |
| 20260507041559 | 52 | 197 | 0.0 | 0.0 | 0.00 | 0.00 | 0.00 | 82 | 1043.2 |
| 20260507040153 | 50 | 197 | 0.0 | 1.0 | 0.00 | 0.00 | 0.00 | 81 | 1043.0 |
| 20260507034546 | 49 | 197 | 0.0 | 4.0 | 0.00 | 0.00 | 0.00 | 81 | 1042.9 |
| 20260507033042 | 47 | 196 | 3.0 | 5.0 | 0.00 | 0.00 | 0.00 | 82 | 1042.8 |
| 20260507031544 | 46 | 188 | 3.0 | 5.0 | 0.00 | 0.00 | 0.00 | 83 | 1042.7 |
| 20260507030036 | 46 | 186 | 3.0 | 5.0 | 0.00 | 0.00 | 0.00 | 84 | 1042.7 |
| 20260507024535 | 46 | 194 | 3.0 | 5.0 | 0.00 | 0.00 | 0.00 | 84 | 1042.5 |
| 20260507023035 | 46 | 185 | 1.0 | 3.0 | 0.00 | 0.00 | 0.00 | 83 | 1042.4 |
| 20260507021537 | 47 | 189 | 2.0 | 5.0 | 0.00 | 0.00 | 0.00 | 82 | 1042.4 |
| 20260507020046 | 46 | 186 | 2.0 | 4.0 | 0.00 | 0.00 | 0.00 | 84 | 1042.4 |
| 20260507014534 | 46 | 180 | 1.0 | 5.0 | 0.00 | 0.00 | 0.00 | 84 | 1042.3 |
| 20260507013031 | 47 | 160 | 0.0 | 6.0 | 0.00 | 0.00 | 0.00 | 84 | 1042.2 |
| 20260507011541 | 47 | 192 | 2.0 | 4.0 | 0.00 | 0.00 | 0.00 | 84 | 1042.2 |
| 20260507010033 | 47 | 200 | 3.0 | 4.0 | 0.00 | 0.00 | 0.00 | 83 | 1042.1 |
| 20260507004528 | 48 | 190 | 2.0 | 5.0 | 0.00 | 0.00 | 0.00 | 84 | 1042.2 |
| 20260507003026 | 47 | 194 | 3.0 | 5.0 | 0.00 | 0.00 | 0.00 | 87 | 1042.1 |
| 20260507001550 | 47 | 188 | 2.0 | 4.0 | 0.00 | 0.00 | 0.00 | 87 | 1042.2 |
| 20260507000024 | 48 | 199 | 2.0 | 5.0 | 0.00 | 0.00 | 0.00 | 88 | 1042.2 |
| 20260506234520 | 48 | 190 | 2.0 | 4.0 | 0.00 | 0.00 | 0.00 | 88 | 1042.3 |
| 20260506233019 | 48 | 190 | 3.0 | 4.0 | 0.00 | 0.00 | 0.00 | 88 | 1042.3 |
| 20260506231518 | 48 | 188 | 2.0 | 4.0 | 0.00 | 0.00 | 0.00 | 88 | 1042.4 |
| 20260506230017 | 48 | 194 | 1.0 | 5.0 | 0.00 | 0.00 | 0.00 | 88 | 1042.4 |
| 20260506224516 | 48 | 192 | 2.0 | 4.0 | 0.00 | 0.00 | 0.00 | 89 | 1042.4 |
| 20260506223013 | 48 | 186 | 0.0 | 3.0 | 0.00 | 0.00 | 0.00 | 88 | 1042.6 |
| 20260506221512 | 48 | 182 | 1.0 | 4.0 | 0.00 | 0.00 | 0.00 | 88 | 1042.5 |
| 20260506220009 | 48 | 180 | 1.0 | 3.0 | 0.00 | 0.00 | 0.00 | 88 | 1042.7 |
| 20260506214507 | 48 | 180 | 1.0 | 3.0 | 0.00 | 0.00 | 0.00 | 88 | 1042.9 |
| 20260506213004 | 49 | 184 | 1.0 | 5.0 | 0.00 | 0.00 | 0.00 | 88 | 1042.9 |
| 20260506211559 | 49 | 183 | 2.0 | 4.0 | 0.00 | 0.00 | 0.00 | 88 | 1042.7 |
| 20260506210155 | 49 | 182 | 2.0 | 4.0 | 0.00 | 0.00 | 0.00 | 88 | 1042.8 |
| 20260506204557 | 49 | 181 | 1.0 | 3.0 | 0.00 | 0.00 | 0.00 | 87 | 1042.8 |
| 20260506203116 | 49 | 181 | 0.0 | 3.0 | 0.00 | 0.00 | 0.00 | 86 | 1042.8 |
| 20260506201552 | 49 | 180 | 0.0 | 2.0 | 0.00 | 0.00 | 0.00 | 84 | 1042.8 |
| 20260506200056 | 50 | 185 | 1.0 | 4.0 | 0.00 | 0.00 | 0.00 | 84 | 1042.8 |
| 20260506194553 | 50 | 191 | 2.0 | 5.0 | 0.00 | 0.00 | 0.00 | 83 | 1042.8 |
| 20260506193054 | 50 | 192 | 2.0 | 4.0 | 0.00 | 0.00 | 0.00 | 83 | 1042.7 |
| 20260506191549 | 50 | 178 | 3.0 | 5.0 | 0.00 | 0.00 | 0.00 | 83 | 1042.6 |
| 20260506190052 | 51 | 195 | 3.0 | 6.0 | 0.00 | 0.00 | 0.00 | 82 | 1042.5 |
| 20260506184550 | 51 | 167 | 0.0 | 3.0 | 0.00 | 0.00 | 0.00 | 82 | 1042.4 |
| 20260506183046 | 52 | 173 | 0.0 | 5.0 | 0.00 | 0.00 | 0.00 | 83 | 1042.1 |
| 20260506181552 | 52 | 187 | 2.0 | 4.0 | 0.00 | 0.00 | 0.00 | 84 | 1042.0 |
| 20260506180043 | 54 | 191 | 3.0 | 4.0 | 0.00 | 0.00 | 0.00 | 82 | 1041.8 |
| 20260506174541 | 56 | 194 | 2.0 | 5.0 | 0.00 | 0.00 | 0.00 | 80 | 1041.7 |
| 20260506173045 | 57 | 149 | 0.0 | 2.0 | 0.00 | 0.00 | 0.00 | 79 | 1041.6 |
| 20260506171539 | 58 | 149 | 0.0 | 3.0 | 0.00 | 0.00 | 0.00 | 77 | 1041.4 |
| 20260506170044 | 58 | 115 | 0.0 | 3.0 | 0.00 | 0.00 | 0.00 | 77 | 1041.3 |
| 20260506164551 | 59 | 241 | 1.0 | 7.0 | 0.00 | 0.00 | 0.00 | 76 | 1041.1 |
| 20260506163041 | 59 | 260 | 4.0 | 7.0 | 0.00 | 0.00 | 0.00 | 75 | 1040.9 |
| 20260506161535 | 60 | 252 | 3.0 | 7.0 | 0.00 | 0.00 | 0.00 | 74 | 1040.9 |
| 20260506160036 | 61 | 267 | 3.0 | 7.0 | 0.00 | 0.00 | 0.00 | 70 | 1040.9 |
| 20260506154534 | 63 | 260 | 4.0 | 7.0 | 0.00 | 0.00 | 0.00 | 68 | 1040.7 |
| 20260506153033 | 63 | 265 | 3.0 | 6.0 | 0.00 | 0.00 | 0.00 | 67 | 1040.6 |
| 20260506151536 | 65 | 243 | 2.0 | 4.0 | 0.00 | 0.00 | 0.00 | 67 | 1040.7 |
| 20260506150032 | 66 | 239 | 3.0 | 4.0 | 0.00 | 0.00 | 0.00 | 65 | 1040.8 |
| 20260506144531 | 66 | 261 | 1.0 | 4.0 | 0.00 | 0.00 | 0.00 | 65 | 1040.7 |
| 20260506143037 | 66 | 90 | 1.0 | 8.0 | 0.00 | 0.00 | 0.00 | 66 | 1040.6 |
| 20260506141539 | 66 | 28 | 1.0 | 2.0 | 0.00 | 0.00 | 0.00 | 65 | 1040.6 |
| 20260506140030 | 66 | 24 | 2.0 | 8.0 | 0.00 | 0.00 | 0.00 | 66 | 1040.7 |
| 20260506134529 | 65 | 340 | 4.0 | 8.0 | 0.00 | 0.00 | 0.00 | 67 | 1040.6 |
| 20260506133029 | 66 | 86 | 1.0 | 4.0 | 0.00 | 0.00 | 0.00 | 66 | 1040.5 |
| 20260506131527 | 65 | 26 | 2.0 | 7.0 | 0.00 | 0.00 | 0.00 | 64 | 1040.5 |
| 20260506130027 | 64 | 325 | 2.0 | 4.0 | 0.00 | 0.00 | 0.00 | 65 | 1040.5 |
| 20260506124527 | 65 | 36 | 2.0 | 6.0 | 0.00 | 0.00 | 0.00 | 66 | 1040.6 |
| 20260506123026 | 66 | 51 | 4.0 | 9.0 | 0.00 | 0.00 | 0.00 | 63 | 1040.5 |
| 20260506121524 | 66 | 290 | 3.0 | 7.0 | 0.00 | 0.00 | 0.00 | 63 | 1040.5 |
| 20260506120047 | 66 | 173 | 3.0 | 9.0 | 0.00 | 0.00 | 0.00 | 66 | 1040.7 |
| 20260506114523 | 63 | 196 | 4.0 | 8.0 | 0.00 | 0.00 | 0.00 | 67 | 1040.9 |
| 20260506113023 | 63 | 181 | 2.0 | 5.0 | 0.00 | 0.00 | 0.00 | 67 | 1041.1 |
| 20260506111522 | 63 | 201 | 1.0 | 5.0 | 0.00 | 0.00 | 0.00 | 67 | 1041.0 |
| 20260506110024 | 64 | 209 | 2.0 | 5.0 | 0.00 | 0.00 | 0.00 | 65 | 1041.1 |
| 20260506104534 | 65 | 101 | 0.0 | 0.0 | 0.00 | 0.00 | 0.00 | 65 | 1041.0 |
| 20260506103036 | 65 | 103 | 0.0 | 5.0 | 0.00 | 0.00 | 0.00 | 65 | 1041.1 |
| 20260506101520 | 65 | 247 | 2.0 | 12.0 | 0.00 | 0.00 | 0.00 | 65 | 1041.1 |
| 20260506100019 | 65 | 240 | 4.0 | 8.0 | 0.00 | 0.00 | 0.00 | 66 | 1041.0 |
| 20260506094518 | 63 | 241 | 3.0 | 7.0 | 0.00 | 0.00 | 0.00 | 66 | 1041.1 |
| 20260506093021 | 63 | 259 | 4.0 | 10.0 | 0.00 | 0.00 | 0.00 | 63 | 1041.1 |
| 20260506091518 | 64 | 239 | 3.0 | 5.0 | 0.00 | 0.00 | 0.00 | 67 | 1041.2 |
| 20260506090015 | 65 | 276 | 3.0 | 10.0 | 0.00 | 0.00 | 0.00 | 63 | 1041.0 |
| 20260506084528 | 66 | 205 | 2.0 | 6.0 | 0.00 | 0.00 | 0.00 | 62 | 1040.8 |
| 20260506083013 | 66 | 261 | 3.0 | 8.0 | 0.00 | 0.00 | 0.00 | 60 | 1041.0 |
| 20260506081510 | 65 | 252 | 4.0 | 8.0 | 0.00 | 0.00 | 0.00 | 56 | 1041.0 |
| 20260506073100 | 67 | 88 | 2.0 | 6.0 | 0.00 | 0.00 | 0.00 | 49 | 1040.7 |
| 20260506071558 | 67 | 28 | 3.0 | 10.0 | 0.00 | 0.00 | 0.00 | 50 | 1040.6 |